Regional Weather Roundup
Issued by NWS

Home | Current Version | Previous Version | Graphics & Text | Print | Product List | Glossary On
Versions: 1 2 3 4 5 6 7 8 9 10 11 12 13 14 15 16 17 18 19 20 21 22 23 24 25 26 27 28 29 30 31 32 33 34 35 36 37 38 39 40 41 42 43 44 45 46 47 48 49 50
000
ASUS43 KMKX 300621
RWRWI

WISCONSIN REGIONAL WEATHER ROUNDUP
NATIONAL WEATHER SERVICE MILWAUKEE/SULLIVAN WI
100 AM CDT TUE SEP 30 2014

NOTE: "FAIR" INDICATES FEW OR NO CLOUDS BELOW 12,000 FEET WITH NO
SIGNIFICANT WEATHER AND/OR OBSTRUCTIONS TO VISIBILITY.

WIZ001-002-006>008-014>016-023>028-300700-
NORTHWEST WISCONSIN

CITY           SKY/WX    TMP DP  RH WIND       PRES   REMARKS
SUPERIOR ARPT  CLOUDY    44  39  82 E6        30.18S
6HR MIN TEMP:  44; 6HR MAX TEMP:  46;

ASHLAND        CLOUDY    44  40  85 E7        30.19F
6HR MIN TEMP:  43; 6HR MAX TEMP:  44;

HAYWARD        CLOUDY    41  38  89 NE12      30.15S
6HR MIN TEMP:  41; 6HR MAX TEMP:  43;

SIREN          CLOUDY    42  39  90 E7        30.15S
6HR MIN TEMP:  42; 6HR MAX TEMP:  47;

CUMBERLAND     CLOUDY    41  36  81 E12       30.13S
RICE LAKE      CLOUDY    41  37  84 NE9       30.16R
6HR MIN TEMP:  41; 6HR MAX TEMP:  48;

CHETEK         CLOUDY    41  38  88 NE6G16    30.14R
6HR MIN TEMP:  41; 6HR MAX TEMP:  50;

LADYSMITH      CLOUDY    41  38  87 NE9       30.15F
6HR MIN TEMP:  41; 6HR MAX TEMP:  46;

EAU CLAIRE     CLOUDY    42  36  79 NE14      30.12S
6HR MIN TEMP:  42; 6HR MAX TEMP:  53;

MENOMONIE      CLOUDY    44  39  82 E12       30.13S
6HR MIN TEMP:  43; 6HR MAX TEMP:  55;

NEW RICHMOND   MOCLDY    41  39  93 NE12      30.12S
6HR MIN TEMP:  41; 6HR MAX TEMP:  51;

OSCEOLA        CLOUDY    43  42  95 E7        30.16R
6HR MIN TEMP:  42; 6HR MAX TEMP:  50;

$$

WIZ003>005-009-010-017-018-300700-
NORTH CENTRAL WISCONSIN

CITY           SKY/WX    TMP DP  RH WIND       PRES   REMARKS
MANITOWISH WTR CLOUDY    37  37 100 NE9       30.14F WCI  30
6HR MIN TEMP:  37; 6HR MAX TEMP:  38;

ARBOR VITAE    CLOUDY    39  37  93 NE5       30.14F
6HR MIN TEMP:  39; 6HR MAX TEMP:  42;

WOODRUFF       CLOUDY    39  37  93 NE5       30.14F
6HR MIN TEMP:  39; 6HR MAX TEMP:  42;

RHINELANDER    CLOUDY    37  35  92 VRB7      30.14F WCI  32
6HR MIN TEMP:  36; 6HR MAX TEMP:  40;

EAGLE RIVER    DRIZZLE   37  37 100 NE7       30.13F WCI  32
6HR MIN TEMP:  37; 6HR MAX TEMP:  38;

LAND O LAKES   CLOUDY    38  37  96 N9        30.15F WCI  31
6HR MIN TEMP:  37; 6HR MAX TEMP:  38;

PHILLIPS       CLOUDY    38  36  91 NE13      30.14R WCI  30
6HR MIN TEMP:  38; 6HR MAX TEMP:  41;

TOMAHAWK       CLOUDY    38  35  87 NE7       30.13F WCI  33
6HR MIN TEMP:  38; 6HR MAX TEMP:  42;

MEDFORD        CLOUDY    38  36  91 NE8       30.12S WCI  32
6HR MIN TEMP:  38; 6HR MAX TEMP:  45;

MERRILL        CLOUDY    39  36  87 NE13      30.12F WCI  32
6HR MIN TEMP:  39; 6HR MAX TEMP:  45;

$$

WIZ029-030-035-036-043>047-300700-
CENTRAL WISCONSIN

CITY           SKY/WX    TMP DP  RH WIND       PRES   REMARKS
WAUSAU         CLOUDY    41  36  82 NE7       30.12R
6HR MIN TEMP:  41; 6HR MAX TEMP:  49;

MOSINEE        CLOUDY    41  37  87 NE9       30.12S
MARSHFIELD     CLOUDY    42  37  82 NE12      30.10S
6HR MIN TEMP:  42; 6HR MAX TEMP:  52;

STEVENS POINT  CLOUDY    40  37  86 N10       30.11F WCI  34
6HR MIN TEMP:  40; 6HR MAX TEMP:  49; 6HR PCP:  0.05;

WAUPACA        CLOUDY    46  40  81 N7        30.11F
6HR MIN TEMP:  46; 6HR MAX TEMP:  54;

WAUTOMA        NOT AVBL
WISC RAPIDS    CLOUDY    45  39  79 E10       30.11F
6HR MIN TEMP:  45; 6HR MAX TEMP:  54;

CAMP DOUGLAS   CLOUDY    46  46 100 NE10      30.09S
6HR MIN TEMP:  43; 6HR MAX TEMP:  53;

$$

WIZ011>013-019>022-031-037>040-048>050-300700-
NORTHEAST WISCONSIN

CITY           SKY/WX    TMP DP  RH WIND       PRES   REMARKS
ANTIGO         CLOUDY    37  36  94 N12       30.13R WCI  30
6HR MIN TEMP:  37; 6HR MAX TEMP:  44;

SHAWANO        CLOUDY    44  39  81 N10       30.12F
6HR MIN TEMP:  44; 6HR MAX TEMP:  51;

OCONTO         CLOUDY    43  40  88 N7        30.11S
6HR MIN TEMP:  43; 6HR MAX TEMP:  49;

STURGEON BAY   NOT AVBL
GREEN BAY      CLOUDY    43  38  82 N17G23    30.11S
6HR MIN TEMP:  43; 6HR MAX TEMP:  50;

MANITOWOC      NOT AVBL
APPLETON       CLOUDY    43  36  75 N15       30.11S
CLINTONVILLE   CLOUDY    43  36  75 N8        30.12S
OSHKOSH        CLOUDY    46  39  76 N18       30.10R
6HR MIN TEMP:  46; 6HR MAX TEMP:  52;

$$

WIZ032>034-041-042-053>061-300700-
SOUTHWEST WISCONSIN

CITY           SKY/WX    TMP DP  RH WIND       PRES   REMARKS
LA CROSSE      CLEAR     47  42  83 NE6       30.09R
6HR MIN TEMP:  47; 6HR MAX TEMP:  59;

SPARTA         MOCLDY    43  41  95 N5        30.10S
6HR MIN TEMP:  41; 6HR MAX TEMP:  55;

VIROQUA        PTCLDY    45  45 100 NE3       30.07S
6HR MIN TEMP:  45; 6HR MAX TEMP:  54;

BOSCOBEL       CLOUDY    54  47  77 NE6       30.06S
6HR MIN TEMP:  53; 6HR MAX TEMP:  58;

PRAIRIE DU CHI CLOUDY    53  47  77 NE6       30.05S
6HR MIN TEMP:  53; 6HR MAX TEMP:  61;

PLATTEVILLE    CLOUDY    52  49  90 NE6       30.05S
6HR MIN TEMP:  52; 6HR MAX TEMP:  63;

$$

WIZ056-057-062-063-064-067-068-300700-
SOUTH CENTRAL WISCONSIN

CITY           SKY/WX    TMP DP  RH WIND       PRES   REMARKS
REEDSBURG      CLOUDY    49  45  85 NE7       30.07S
6HR MIN TEMP:  49; 6HR MAX TEMP:  53;

BARABOO/DELLS  CLOUDY    47  44  89 NE9G16    30.08R FOG
6HR MIN TEMP:  47; 6HR MAX TEMP:  52;

LONE ROCK      CLOUDY    55  46  71 NE9       30.07R
6HR MIN TEMP:  55; 6HR MAX TEMP:  60;

MINERAL POINT  CLOUDY    52  48  87 NE8       30.05S
MADISON        CLOUDY    49  44  83 NE15      30.07R
6HR MIN TEMP:  49; 6HR MAX TEMP:  54;

MIDDLETON      CLOUDY    50  46  87 NE9       30.07S
6HR MIN TEMP:  50; 6HR MAX TEMP:  55;

WATERTOWN      CLOUDY    47  44  87 NE10      30.06S
6HR MIN TEMP:  47; 6HR MAX TEMP:  51;

MONROE         CLOUDY    50  48  93 N12       30.04S
JANESVILLE     CLOUDY    52  45  76 NE9G17    30.04S
$$

WIZ051-052-058>065-066-070>072-300700-
SOUTHEAST WISCONSIN

CITY           SKY/WX    TMP DP  RH WIND       PRES   REMARKS
MILWAUKEE      CLOUDY    49  42  77 N14G21    30.06R
6HR MIN TEMP:  49; 6HR MAX TEMP:  52; 6HR PCP:  0.05;

WAUKESHA       CLOUDY    45  43  93 NE9       30.06S
MILWAUKEE/TIMM CLOUDY    46  41  81 N12       30.06S
RACINE         CLOUDY    50  44  80 N16G25    30.06S
6HR MIN TEMP:  50; 6HR MAX TEMP:  54; 6HR PCP:  0.01;

BURLINGTON     CLOUDY    47  44  89 NE9       30.05S
6HR MIN TEMP:  47; 6HR MAX TEMP:  53;

KENOSHA        CLOUDY    50  45  83 N9        30.05R
6HR MIN TEMP:  50; 6HR MAX TEMP:  55; 6HR PCP:  0.01;

FOND DU LAC    CLOUDY    46  40  79 NE15      30.09S
6HR MIN TEMP:  46; 6HR MAX TEMP:  52; 6HR PCP:  0.02;

SHEBOYGAN      NOT AVBL
WEST BEND      CLOUDY    45  39  81 N9G16     30.07R
JUNEAU         CLOUDY    47  43  87 N9        30.08S
6HR MIN TEMP:  47; 6HR MAX TEMP:  50;

$$

LSZ147-162-300700-
LAKE SUPERIOR

STATION/POSITION TIME  TEMP    WIND        PRES    WAVE
                       AIR SEA DIR/SP/G            HT/PER
                 (UTC) (F)     (DEG/KT/KT) (MB)    (FT/S)
W MID LAKE BUOY  0550   44 49   50/ 10/ 14 1022.6F   4/ 7
DEVILS ISLAND    0600   44      60/ 14/ 18 1023.1F
SAXON HARBOR     0540   44      90/  5/  9 1022.4S
$$

LMZ867-665-643>646-300700-
LAKE MICHIGAN

STATION/POSITION TIME  TEMP    WIND        PRES    WAVE
                       AIR SEA DIR/SP/G            HT/PER
                 (UTC) (F)     (DEG/KT/KT) (MB)    (FT/S)
CHAMBERS ISLAND  0500   46     330/ 23/ 27 1019.0S
S GREEN BAY BUOY 0600   47                 1020.2
N MID LAKE BUOY  0550   47 58  350/ 21/ 27 1017.5R   4/ 5



USA.gov is the U.S. government's official web portal to all federal, state and local government web resources and services.